sat.trackr.live / text

‹ back to catalog

STARLINK-11200 [DTC]

NORAD 60310 · 2024-133K

PAYLOAD ACTIVE UNKNOWN

§ Identity

Operator
Country
US
Launch date
2024-07-28
Launch site
AFWTR
Launch vehicle
Mass (kg)
RCS (m²)

Purposes: comms

External: N2YO · Heavens-Above · Gunter

§ Orbital elements

Epoch: 2026-05-25T03:04:44.197248Z

Period
91.74 min
Inclination
53.1591°
Eccentricity
0.0001015
Mean motion
15.69707539 rev/d
Perigee alt
359.0 km
Apogee alt
360.4 km
Semi-major
6,737.9 km
B*
1.5140e-5
RAAN
129.1113°
Arg perigee
73.6507°
Mean anomaly
286.4622°
Rev number
10,574

§ Raw data

STARLINK-11200 [DTC]1 60310U 24133K   26145.12828932  .00001246  00000+0  15140-4 0  99932 60310  53.1591 129.1113 0001015  73.6507 286.4622 15.69707539105748

JSON: /api/v1/satellites/60310 · /tle

For live sub-satellite position, see the globe view (requires WebGL).

§ Visibility from observer

Set your observer location to see the next 7 days of passes ≥ 10°. The values pass through the URL so the page stays shareable.

No JS? Fill the form by hand. The geolocation button needs JavaScript.